| time (UTC) | temp F | wind direction | speed MPH | gust MPH | rain 1hr in | rain 24hr in | rain mn in | humidity % | barometer mb |
| 20260507070351 | 39 | 289 | 0.0 | 2.0 | 0.00 | 0.00 | 0.00 | 63 | 1011.3 |
| 20260507065826 | 39 | 288 | 0.0 | 2.0 | 0.00 | 0.00 | 0.00 | 62 | 1011.3 |
| 20260507065332 | 39 | 283 | 0.0 | 1.0 | 0.00 | 0.00 | 0.00 | 62 | 1011.4 |
| 20260507064839 | 39 | 288 | 0.0 | 1.0 | 0.00 | 0.00 | 0.00 | 61 | 1011.5 |
| 20260507064325 | 39 | 290 | 0.0 | 4.0 | 0.00 | 0.00 | 0.00 | 61 | 1011.5 |
| 20260507063829 | 39 | 286 | 0.0 | 4.0 | 0.00 | 0.00 | 0.00 | 61 | 1011.6 |
| 20260507063335 | 39 | 285 | 0.0 | 4.0 | 0.00 | 0.00 | 0.00 | 61 | 1011.6 |
| 20260507062842 | 39 | 285 | 1.0 | 4.0 | 0.00 | 0.00 | 0.00 | 61 | 1011.7 |
| 20260507062327 | 39 | 233 | 1.0 | 3.0 | 0.00 | 0.00 | 0.00 | 61 | 1011.7 |
| 20260507061835 | 39 | 288 | 0.0 | 3.0 | 0.00 | 0.00 | 0.00 | 60 | 1011.7 |
| 20260507061341 | 39 | 292 | 1.0 | 4.0 | 0.00 | 0.00 | 0.00 | 60 | 1011.8 |
| 20260507060827 | 39 | 286 | 0.0 | 3.0 | 0.00 | 0.00 | 0.00 | 60 | 1011.8 |
| 20260507060333 | 39 | 288 | 0.0 | 2.0 | 0.00 | 0.00 | 0.00 | 60 | 1011.8 |
| 20260507055838 | 39 | 211 | 0.0 | 4.0 | 0.00 | 0.00 | 0.00 | 60 | 1011.9 |
| 20260507055324 | 39 | 288 | 2.0 | 4.0 | 0.00 | 0.00 | 0.00 | 60 | 1011.9 |
| 20260507054830 | 39 | 288 | 1.0 | 4.0 | 0.00 | 0.00 | 0.00 | 60 | 1012.0 |
| 20260507054335 | 39 | 279 | 0.0 | 1.0 | 0.00 | 0.00 | 0.00 | 61 | 1012.0 |
| 20260507053826 | 39 | 290 | 0.0 | 1.0 | 0.00 | 0.00 | 0.00 | 61 | 1012.0 |
| 20260507053332 | 38 | 288 | 0.0 | 0.0 | 0.00 | 0.00 | 0.00 | 60 | 1012.1 |
| 20260507052839 | 38 | 245 | 0.0 | 2.0 | 0.00 | 0.00 | 0.00 | 61 | 1012.1 |
| 20260507052325 | 38 | 253 | 0.0 | 0.0 | 0.00 | 0.00 | 0.00 | 62 | 1012.2 |
| 20260507051831 | 38 | 276 | 0.0 | 0.0 | 0.00 | 0.00 | 0.00 | 62 | 1012.3 |
| 20260507051337 | 38 | 276 | 0.0 | 0.0 | 0.00 | 0.00 | 0.00 | 61 | 1012.3 |
| 20260507050844 | 38 | 276 | 0.0 | 0.0 | 0.00 | 0.00 | 0.00 | 61 | 1012.3 |
| 20260507050330 | 38 | 276 | 0.0 | 0.0 | 0.00 | 0.00 | 0.00 | 61 | 1012.3 |
| 20260507045347 | 39 | 276 | 0.0 | 0.0 | 0.00 | 0.00 | 0.00 | 60 | 1012.3 |
| 20260507044912 | 38 | 276 | 0.0 | 0.0 | 0.00 | 0.00 | 0.00 | 61 | 1012.2 |
| 20260507044328 | 39 | 277 | 0.0 | 0.0 | 0.00 | 0.00 | 0.00 | 61 | 1012.3 |
| 20260507043851 | 39 | 277 | 0.0 | 0.0 | 0.00 | 0.00 | 0.00 | 60 | 1012.3 |
| 20260507043419 | 39 | 276 | 0.0 | 0.0 | 0.00 | 0.00 | 0.00 | 62 | 1012.3 |
| 20260507042838 | 39 | 276 | 0.0 | 0.0 | 0.00 | 0.00 | 0.00 | 60 | 1012.3 |
| 20260507042402 | 39 | 276 | 0.0 | 0.0 | 0.00 | 0.00 | 0.00 | 61 | 1012.3 |
| 20260507041827 | 39 | 276 | 0.0 | 0.0 | 0.00 | 0.00 | 0.00 | 61 | 1012.3 |
| 20260507041353 | 39 | 276 | 0.0 | 0.0 | 0.00 | 0.00 | 0.00 | 58 | 1012.3 |
| 20260507040901 | 39 | 276 | 0.0 | 0.0 | 0.00 | 0.00 | 0.00 | 56 | 1012.3 |
| 20260507035844 | 39 | 276 | 0.0 | 0.0 | 0.00 | 0.00 | 0.00 | 57 | 1012.2 |
| 20260507035407 | 40 | 276 | 0.0 | 0.0 | 0.00 | 0.00 | 0.00 | 56 | 1012.3 |
| 20260507034823 | 40 | 276 | 0.0 | 0.0 | 0.00 | 0.00 | 0.00 | 55 | 1012.2 |
| 20260507034342 | 40 | 276 | 0.0 | 0.0 | 0.00 | 0.00 | 0.00 | 54 | 1012.3 |
| 20260507033905 | 40 | 276 | 0.0 | 1.0 | 0.00 | 0.00 | 0.00 | 55 | 1012.3 |
| 20260507033325 | 41 | 276 | 0.0 | 1.0 | 0.00 | 0.00 | 0.00 | 54 | 1012.3 |
| 20260507032850 | 41 | 276 | 0.0 | 1.0 | 0.00 | 0.00 | 0.00 | 53 | 1012.3 |
| 20260507032349 | 41 | 281 | 0.0 | 2.0 | 0.00 | 0.00 | 0.00 | 52 | 1012.3 |
| 20260507031847 | 41 | 281 | 0.0 | 2.0 | 0.00 | 0.00 | 0.00 | 51 | 1012.4 |
| 20260507030847 | 41 | 312 | 0.0 | 3.0 | 0.00 | 0.00 | 0.00 | 51 | 1012.4 |
| 20260507030416 | 41 | 312 | 1.0 | 5.0 | 0.00 | 0.00 | 0.00 | 50 | 1012.5 |
| 20260507025918 | 41 | 298 | 2.0 | 6.0 | 0.00 | 0.00 | 0.00 | 50 | 1012.5 |
| 20260507025342 | 41 | 309 | 2.0 | 8.0 | 0.00 | 0.00 | 0.00 | 50 | 1012.5 |
| 20260507024339 | 41 | 312 | 2.0 | 8.0 | 0.00 | 0.00 | 0.00 | 52 | 1012.6 |
| 20260507023345 | 42 | 314 | 4.0 | 7.0 | 0.00 | 0.00 | 0.00 | 52 | 1012.5 |
| 20260507022854 | 42 | 321 | 2.0 | 6.0 | 0.00 | 0.00 | 0.00 | 52 | 1012.5 |
| 20260507022420 | 42 | 322 | 1.0 | 5.0 | 0.00 | 0.00 | 0.00 | 52 | 1012.4 |
| 20260507021824 | 42 | 305 | 2.0 | 7.0 | 0.00 | 0.00 | 0.00 | 52 | 1012.4 |
| 20260507021342 | 42 | 296 | 3.0 | 7.0 | 0.00 | 0.00 | 0.00 | 52 | 1012.4 |
| 20260507020335 | 42 | 306 | 3.0 | 7.0 | 0.00 | 0.00 | 0.00 | 52 | 1012.3 |
| 20260507015855 | 42 | 303 | 3.0 | 7.0 | 0.00 | 0.00 | 0.00 | 52 | 1012.2 |
| 20260507015420 | 42 | 319 | 1.0 | 7.0 | 0.00 | 0.00 | 0.00 | 52 | 1012.2 |
| 20260507014845 | 42 | 300 | 1.0 | 7.0 | 0.00 | 0.00 | 0.00 | 52 | 1012.1 |
| 20260507014353 | 42 | 2 | 0.0 | 7.0 | 0.00 | 0.00 | 0.00 | 52 | 1012.0 |
| 20260507013911 | 42 | 319 | 3.0 | 7.0 | 0.00 | 0.00 | 0.00 | 51 | 1012.0 |
| 20260507013335 | 42 | 303 | 3.0 | 11.0 | 0.00 | 0.00 | 0.00 | 50 | 1012.0 |
| 20260507012840 | 42 | 303 | 5.0 | 11.0 | 0.00 | 0.00 | 0.00 | 50 | 1012.0 |
| 20260507012342 | 43 | 359 | 4.0 | 12.0 | 0.00 | 0.00 | 0.00 | 50 | 1011.9 |
| 20260507011911 | 43 | 324 | 3.0 | 12.0 | 0.00 | 0.00 | 0.00 | 50 | 1011.9 |
| 20260507011332 | 43 | 307 | 5.0 | 11.0 | 0.00 | 0.00 | 0.00 | 49 | 1011.9 |
| 20260507010410 | 43 | 333 | 4.0 | 10.0 | 0.00 | 0.00 | 0.00 | 48 | 1011.7 |
| 20260507005828 | 43 | 321 | 3.0 | 9.0 | 0.00 | 0.00 | 0.00 | 48 | 1011.8 |
| 20260507005335 | 44 | 330 | 4.0 | 12.0 | 0.00 | 0.00 | 0.00 | 48 | 1011.6 |
| 20260507004841 | 44 | 298 | 5.0 | 12.0 | 0.00 | 0.00 | 0.00 | 47 | 1011.6 |
| 20260507004405 | 44 | 328 | 4.0 | 8.0 | 0.00 | 0.00 | 0.00 | 47 | 1011.4 |
| 20260507003824 | 44 | 303 | 4.0 | 10.0 | 0.00 | 0.00 | 0.00 | 47 | 1011.4 |
| 20260507003345 | 44 | 290 | 4.0 | 12.0 | 0.00 | 0.00 | 0.00 | 47 | 1011.4 |
| 20260507002854 | 45 | 299 | 5.0 | 12.0 | 0.00 | 0.00 | 0.00 | 47 | 1011.3 |
| 20260507002417 | 45 | 309 | 5.0 | 10.0 | 0.00 | 0.00 | 0.00 | 47 | 1011.3 |
| 20260507001920 | 45 | 295 | 4.0 | 8.0 | 0.00 | 0.00 | 0.00 | 46 | 1011.3 |
| 20260507001339 | 45 | 305 | 2.0 | 8.0 | 0.00 | 0.00 | 0.00 | 46 | 1011.1 |
| 20260507000844 | 45 | 299 | 5.0 | 8.0 | 0.00 | 0.00 | 0.00 | 46 | 1011.0 |
| 20260507000335 | 45 | 321 | 5.0 | 8.0 | 0.00 | 0.00 | 0.00 | 45 | 1011.1 |
| 20260506235840 | 45 | 288 | 2.0 | 12.0 | 0.00 | 0.00 | 0.00 | 46 | 1011.0 |
| 20260506235404 | 46 | 316 | 5.0 | 12.0 | 0.00 | 0.00 | 0.00 | 45 | 1011.0 |
| 20260506234832 | 46 | 338 | 5.0 | 8.0 | 0.00 | 0.00 | 0.00 | 45 | 1011.0 |
| 20260506234355 | 46 | 351 | 2.0 | 7.0 | 0.00 | 0.00 | 0.00 | 45 | 1010.9 |
| 20260506233919 | 46 | 321 | 2.0 | 10.0 | 0.00 | 0.00 | 0.00 | 45 | 1010.9 |
| 20260506233341 | 46 | 296 | 3.0 | 10.0 | 0.00 | 0.00 | 0.00 | 44 | 1010.8 |
| 20260506232906 | 46 | 335 | 3.0 | 8.0 | 0.00 | 0.00 | 0.00 | 44 | 1010.8 |
| 20260506232413 | 47 | 319 | 3.0 | 8.0 | 0.00 | 0.00 | 0.00 | 45 | 1010.8 |
| 20260506231920 | 47 | 307 | 2.0 | 12.0 | 0.00 | 0.00 | 0.00 | 44 | 1010.7 |
| 20260506231339 | 47 | 293 | 4.0 | 12.0 | 0.00 | 0.00 | 0.00 | 44 | 1010.7 |
| 20260506230906 | 47 | 295 | 5.0 | 11.0 | 0.00 | 0.00 | 0.00 | 42 | 1010.7 |
| 20260506230323 | 47 | 321 | 5.0 | 13.0 | 0.00 | 0.00 | 0.00 | 42 | 1010.6 |
| 20260506225855 | 47 | 328 | 3.0 | 13.0 | 0.00 | 0.00 | 0.00 | 42 | 1010.6 |
| 20260506225357 | 47 | 278 | 4.0 | 8.0 | 0.00 | 0.00 | 0.00 | 41 | 1010.6 |
| 20260506224921 | 47 | 296 | 4.0 | 9.0 | 0.00 | 0.00 | 0.00 | 41 | 1010.5 |
| 20260506224324 | 48 | 334 | 3.0 | 8.0 | 0.00 | 0.00 | 0.00 | 41 | 1010.5 |
| 20260506223852 | 48 | 354 | 4.0 | 9.0 | 0.00 | 0.00 | 0.00 | 40 | 1010.5 |
| 20260506223414 | 48 | 337 | 4.0 | 9.0 | 0.00 | 0.00 | 0.00 | 40 | 1010.5 |
| 20260506222837 | 48 | 303 | 3.0 | 9.0 | 0.00 | 0.00 | 0.00 | 40 | 1010.5 |
| 20260506222359 | 48 | 9 | 3.0 | 9.0 | 0.00 | 0.00 | 0.00 | 40 | 1010.4 |
| 20260506221822 | 48 | 38 | 5.0 | 8.0 | 0.00 | 0.00 | 0.00 | 40 | 1010.4 |
| 20260506221344 | 48 | 317 | 5.0 | 8.0 | 0.00 | 0.00 | 0.00 | 40 | 1010.3 |
| 20260506220345 | 48 | 281 | 4.0 | 11.0 | 0.00 | 0.00 | 0.00 | 40 | 1010.3 |
| 20260506215345 | 48 | 276 | 4.0 | 9.0 | 0.00 | 0.00 | 0.00 | 38 | 1010.2 |
| 20260506214343 | 49 | 312 | 3.0 | 11.0 | 0.00 | 0.00 | 0.00 | 40 | 1010.2 |
| 20260506213345 | 49 | 312 | 2.0 | 7.0 | 0.00 | 0.00 | 0.00 | 39 | 1010.1 |
| 20260506212341 | 49 | 297 | 5.0 | 11.0 | 0.00 | 0.00 | 0.00 | 38 | 1010.2 |
| 20260506211848 | 49 | 339 | 5.0 | 11.0 | 0.00 | 0.00 | 0.00 | 39 | 1010.2 |
| 20260506211407 | 49 | 343 | 4.0 | 10.0 | 0.00 | 0.00 | 0.00 | 39 | 1010.1 |
| 20260506210826 | 49 | 312 | 4.0 | 12.0 | 0.00 | 0.00 | 0.00 | 39 | 1010.2 |
| 20260506210350 | 48 | 320 | 4.0 | 11.0 | 0.00 | 0.00 | 0.00 | 40 | 1010.1 |
| 20260506205911 | 48 | 288 | 6.0 | 10.0 | 0.00 | 0.00 | 0.00 | 39 | 1010.2 |
| 20260506205342 | 49 | 314 | 5.0 | 13.0 | 0.00 | 0.00 | 0.00 | 39 | 1010.2 |
| 20260506204905 | 49 | 333 | 6.0 | 17.0 | 0.00 | 0.00 | 0.00 | 38 | 1010.2 |
| 20260506203840 | 50 | 281 | 3.0 | 7.0 | 0.00 | 0.00 | 0.00 | 39 | 1010.2 |
| 20260506202843 | 49 | 288 | 3.0 | 8.0 | 0.00 | 0.00 | 0.00 | 41 | 1010.2 |
| 20260506202406 | 48 | 303 | 1.0 | 13.0 | 0.00 | 0.00 | 0.00 | 41 | 1010.2 |
| 20260506201908 | 48 | 269 | 4.0 | 9.0 | 0.00 | 0.00 | 0.00 | 40 | 1010.4 |
| 20260506201327 | 48 | 326 | 2.0 | 12.0 | 0.00 | 0.00 | 0.00 | 41 | 1010.3 |
| 20260506200831 | 48 | 284 | 3.0 | 12.0 | 0.00 | 0.00 | 0.00 | 41 | 1010.4 |
| 20260506200358 | 48 | 290 | 4.0 | 11.0 | 0.00 | 0.00 | 0.00 | 40 | 1010.4 |
| 20260506195922 | 48 | 271 | 5.0 | 10.0 | 0.00 | 0.00 | 0.00 | 39 | 1010.4 |
| 20260506195337 | 48 | 284 | 4.0 | 12.0 | 0.00 | 0.00 | 0.00 | 40 | 1010.4 |
| 20260506194904 | 49 | 290 | 4.0 | 12.0 | 0.00 | 0.00 | 0.00 | 39 | 1010.5 |
| 20260506193843 | 49 | 274 | 1.0 | 8.0 | 0.00 | 0.00 | 0.00 | 40 | 1010.5 |
| 20260506192846 | 48 | 302 | 6.0 | 12.0 | 0.00 | 0.00 | 0.00 | 40 | 1010.6 |
| 20260506192409 | 49 | 288 | 3.0 | 12.0 | 0.00 | 0.00 | 0.00 | 40 | 1010.5 |
| 20260506191826 | 48 | 302 | 3.0 | 12.0 | 0.00 | 0.00 | 0.00 | 41 | 1010.5 |
| 20260506191350 | 48 | 310 | 5.0 | 12.0 | 0.00 | 0.00 | 0.00 | 40 | 1010.6 |
| 20260506190913 | 48 | 302 | 8.0 | 12.0 | 0.00 | 0.00 | 0.00 | 40 | 1010.7 |
| 20260506190329 | 48 | 216 | 2.0 | 8.0 | 0.00 | 0.00 | 0.00 | 42 | 1010.6 |
| 20260506185855 | 47 | 269 | 3.0 | 12.0 | 0.00 | 0.00 | 0.00 | 43 | 1010.6 |
| 20260506185418 | 47 | 267 | 6.0 | 12.0 | 0.00 | 0.00 | 0.00 | 41 | 1010.7 |
| 20260506184837 | 48 | 267 | 3.0 | 10.0 | 0.00 | 0.00 | 0.00 | 43 | 1010.7 |
| 20260506184400 | 47 | 281 | 3.0 | 10.0 | 0.00 | 0.00 | 0.00 | 43 | 1010.6 |
| 20260506183904 | 47 | 63 | 5.0 | 8.0 | 0.00 | 0.00 | 0.00 | 42 | 1010.7 |
| 20260506183328 | 47 | 292 | 3.0 | 9.0 | 0.00 | 0.00 | 0.00 | 43 | 1010.6 |
| 20260506182851 | 47 | 271 | 3.0 | 9.0 | 0.00 | 0.00 | 0.00 | 43 | 1010.6 |
| 20260506182414 | 47 | 299 | 3.0 | 9.0 | 0.00 | 0.00 | 0.00 | 43 | 1010.7 |
| 20260506181920 | 48 | 302 | 2.0 | 9.0 | 0.00 | 0.00 | 0.00 | 43 | 1010.8 |
| 20260506181339 | 47 | 307 | 5.0 | 12.0 | 0.00 | 0.00 | 0.00 | 43 | 1010.8 |
| 20260506180907 | 48 | 312 | 4.0 | 11.0 | 0.00 | 0.00 | 0.00 | 43 | 1010.8 |
| 20260506180354 | 48 | 258 | 6.0 | 16.0 | 0.00 | 0.00 | 0.00 | 44 | 1010.9 |
| 20260506175915 | 48 | 288 | 3.0 | 13.0 | 0.00 | 0.00 | 0.00 | 42 | 1010.9 |
| 20260506175416 | 48 | 241 | 3.0 | 8.0 | 0.00 | 0.00 | 0.00 | 43 | 1010.9 |
| 20260506174938 | 48 | 272 | 2.0 | 15.0 | 0.00 | 0.00 | 0.00 | 45 | 1011.1 |
| 20260506174439 | 47 | 286 | 8.0 | 15.0 | 0.00 | 0.00 | 0.00 | 45 | 1011.0 |
| 20260506173941 | 46 | 299 | 4.0 | 11.0 | 0.00 | 0.00 | 0.00 | 46 | 1011.1 |
| 20260506173338 | 46 | 302 | 5.0 | 10.0 | 0.00 | 0.00 | 0.00 | 47 | 1011.1 |
| 20260506172901 | 46 | 291 | 3.0 | 14.0 | 0.00 | 0.00 | 0.00 | 47 | 1011.3 |
| 20260506172407 | 45 | 283 | 5.0 | 14.0 | 0.00 | 0.00 | 0.00 | 47 | 1011.5 |
| 20260506171824 | 45 | 255 | 5.0 | 14.0 | 0.00 | 0.00 | 0.00 | 46 | 1011.4 |
| 20260506171354 | 46 | 217 | 3.0 | 11.0 | 0.00 | 0.00 | 0.00 | 48 | 1011.3 |
| 20260506170822 | 45 | 305 | 3.0 | 11.0 | 0.00 | 0.00 | 0.00 | 47 | 1011.3 |
| 20260506170342 | 45 | 326 | 4.0 | 9.0 | 0.00 | 0.00 | 0.00 | 48 | 1011.3 |
| 20260506165911 | 45 | 276 | 3.0 | 8.0 | 0.00 | 0.00 | 0.00 | 48 | 1011.4 |
| 20260506165329 | 45 | 254 | 5.0 | 10.0 | 0.00 | 0.00 | 0.00 | 49 | 1011.5 |
| 20260506164857 | 45 | 285 | 4.0 | 10.0 | 0.00 | 0.00 | 0.00 | 48 | 1011.6 |
| 20260506164359 | 45 | 319 | 5.0 | 10.0 | 0.00 | 0.00 | 0.00 | 48 | 1011.6 |
| 20260506163926 | 44 | 288 | 4.0 | 7.0 | 0.00 | 0.00 | 0.00 | 50 | 1011.7 |
| 20260506163427 | 44 | 226 | 1.0 | 7.0 | 0.00 | 0.00 | 0.00 | 54 | 1011.7 |
| 20260506162825 | 43 | 316 | 1.0 | 11.0 | 0.00 | 0.00 | 0.00 | 53 | 1011.8 |
| 20260506162350 | 43 | 321 | 6.0 | 10.0 | 0.00 | 0.00 | 0.00 | 53 | 1011.8 |
| 20260506161854 | 43 | 324 | 4.0 | 7.0 | 0.00 | 0.00 | 0.00 | 53 | 1011.8 |
| 20260506161418 | 43 | 313 | 2.0 | 8.0 | 0.00 | 0.00 | 0.00 | 53 | 1011.8 |
| 20260506160923 | 43 | 281 | 2.0 | 8.0 | 0.00 | 0.00 | 0.00 | 55 | 1011.9 |
| 20260506160335 | 43 | 289 | 2.0 | 8.0 | 0.00 | 0.00 | 0.00 | 55 | 1011.9 |
| 20260506155844 | 43 | 338 | 5.0 | 8.0 | 0.00 | 0.00 | 0.00 | 54 | 1012.0 |
| 20260506154846 | 43 | 271 | 4.0 | 7.0 | 0.00 | 0.00 | 0.00 | 55 | 1011.9 |
| 20260506153840 | 43 | 247 | 4.0 | 10.0 | 0.00 | 0.00 | 0.00 | 53 | 1011.7 |
| 20260506153347 | 43 | 294 | 2.0 | 6.0 | 0.00 | 0.00 | 0.00 | 56 | 1011.8 |
| 20260506152343 | 42 | 267 | 3.0 | 7.0 | 0.00 | 0.00 | 0.00 | 54 | 1011.8 |
| 20260506151847 | 42 | 286 | 2.0 | 9.0 | 0.00 | 0.00 | 0.00 | 56 | 1011.8 |
| 20260506150841 | 42 | 295 | 1.0 | 6.0 | 0.00 | 0.00 | 0.00 | 55 | 1011.7 |
| 20260506150342 | 42 | 245 | 2.0 | 8.0 | 0.00 | 0.00 | 0.00 | 55 | 1011.7 |
| 20260506145910 | 42 | 320 | 3.0 | 8.0 | 0.00 | 0.00 | 0.00 | 57 | 1011.7 |
| 20260506145332 | 42 | 269 | 0.0 | 5.0 | 0.00 | 0.00 | 0.00 | 55 | 1011.6 |
| 20260506144853 | 42 | 312 | 1.0 | 6.0 | 0.00 | 0.00 | 0.00 | 55 | 1011.6 |
| 20260506144400 | 42 | 349 | 2.0 | 5.0 | 0.00 | 0.00 | 0.00 | 56 | 1011.6 |
| 20260506143821 | 42 | 242 | 1.0 | 6.0 | 0.00 | 0.00 | 0.00 | 56 | 1011.5 |
| 20260506143323 | 42 | 299 | 2.0 | 6.0 | 0.00 | 0.00 | 0.00 | 56 | 1011.6 |
| 20260506142842 | 41 | 309 | 3.0 | 7.0 | 0.00 | 0.00 | 0.00 | 57 | 1011.7 |
| 20260506141823 | 42 | 312 | 1.0 | 5.0 | 0.00 | 0.00 | 0.00 | 58 | 1011.5 |
| 20260506141349 | 41 | 262 | 1.0 | 5.0 | 0.00 | 0.00 | 0.00 | 58 | 1011.5 |
| 20260506140912 | 41 | 264 | 0.0 | 5.0 | 0.00 | 0.00 | 0.00 | 58 | 1011.5 |
| 20260506140414 | 41 | 320 | 2.0 | 6.0 | 0.00 | 0.00 | 0.00 | 60 | 1011.5 |
| 20260506135858 | 41 | 328 | 2.0 | 6.0 | 0.00 | 0.00 | 0.00 | 59 | 1011.6 |
| 20260506135420 | 41 | 293 | 1.0 | 5.0 | 0.00 | 0.00 | 0.00 | 58 | 1011.6 |
| 20260506134841 | 41 | 333 | 1.0 | 4.0 | 0.00 | 0.00 | 0.00 | 60 | 1011.5 |
| 20260506134348 | 40 | 313 | 0.0 | 6.0 | 0.00 | 0.00 | 0.00 | 62 | 1011.5 |
| 20260506133902 | 40 | 261 | 3.0 | 6.0 | 0.00 | 0.00 | 0.00 | 62 | 1011.4 |
| 20260506133426 | 39 | 123 | 0.0 | 2.0 | 0.00 | 0.00 | 0.00 | 64 | 1011.4 |
| 20260506132826 | 39 | 268 | 1.0 | 2.0 | 0.00 | 0.00 | 0.00 | 65 | 1011.4 |
| 20260506132349 | 38 | 286 | 0.0 | 1.0 | 0.00 | 0.00 | 0.00 | 66 | 1011.4 |
| 20260506131347 | 38 | 360 | 0.0 | 2.0 | 0.00 | 0.00 | 0.00 | 68 | 1011.5 |
| 20260506130845 | 38 | 309 | 1.0 | 2.0 | 0.00 | 0.00 | 0.00 | 68 | 1011.6 |
| 20260506125824 | 37 | 281 | 0.0 | 1.0 | 0.00 | 0.00 | 0.00 | 71 | 1011.6 |
| 20260506125444 | 37 | 276 | 0.0 | 0.0 | 0.00 | 0.00 | 0.00 | 72 | 1011.7 |
| 20260506124843 | 37 | 276 | 0.0 | 1.0 | 0.00 | 0.00 | 0.00 | 73 | 1011.7 |
| 20260506123847 | 36 | 284 | 0.0 | 0.0 | 0.00 | 0.00 | 0.00 | 74 | 1011.6 |
| 20260506122843 | 36 | 321 | 0.0 | 0.0 | 0.00 | 0.00 | 0.00 | 77 | 1011.6 |
| 20260506121840 | 35 | 321 | 0.0 | 1.0 | 0.00 | 0.00 | 0.00 | 77 | 1011.4 |
| 20260506121412 | 35 | 279 | 0.0 | 1.0 | 0.00 | 0.00 | 0.00 | 78 | 1011.3 |
| 20260506120830 | 35 | 279 | 0.0 | 1.0 | 0.00 | 0.00 | 0.00 | 79 | 1011.3 |
| 20260506120355 | 35 | 279 | 0.0 | 0.0 | 0.00 | 0.00 | 0.00 | 79 | 1011.1 |
| 20260506115901 | 35 | 279 | 0.0 | 0.0 | 0.00 | 0.00 | 0.00 | 79 | 1011.0 |
| 20260506115409 | 34 | 279 | 0.0 | 0.0 | 0.00 | 0.00 | 0.00 | 80 | 1010.9 |
| 20260506114934 | 34 | 279 | 0.0 | 0.0 | 0.00 | 0.00 | 0.00 | 79 | 1010.9 |
| 20260506114329 | 34 | 279 | 0.0 | 1.0 | 0.00 | 0.00 | 0.00 | 80 | 1011.0 |
| 20260506113854 | 34 | 279 | 0.0 | 1.0 | 0.00 | 0.00 | 0.00 | 81 | 1010.9 |
| 20260506113342 | 33 | 279 | 0.0 | 0.0 | 0.00 | 0.00 | 0.00 | 82 | 1010.8 |
| 20260506112905 | 33 | 278 | 0.0 | 0.0 | 0.00 | 0.00 | 0.00 | 83 | 1010.8 |
| 20260506112411 | 33 | 279 | 0.0 | 0.0 | 0.00 | 0.00 | 0.00 | 82 | 1010.7 |
| 20260506111824 | 33 | 279 | 0.0 | 0.0 | 0.00 | 0.00 | 0.00 | 81 | 1010.8 |
| 20260506111350 | 33 | 279 | 0.0 | 0.0 | 0.00 | 0.00 | 0.00 | 81 | 1010.8 |
| 20260506110345 | 33 | 279 | 0.0 | 1.0 | 0.00 | 0.00 | 0.00 | 81 | 1010.5 |
| 20260506105848 | 33 | 298 | 0.0 | 1.0 | 0.00 | 0.00 | 0.00 | 83 | 1010.5 |
| 20260506105350 | 32 | 324 | 0.0 | 0.0 | 0.00 | 0.00 | 0.00 | 84 | 1010.4 |
| 20260506104905 | 32 | 324 | 0.0 | 0.0 | 0.00 | 0.00 | 0.00 | 84 | 1010.4 |
| 20260506104428 | 32 | 324 | 0.0 | 0.0 | 0.00 | 0.00 | 0.00 | 84 | 1010.4 |
| 20260506103909 | 32 | 324 | 0.0 | 0.0 | 0.00 | 0.00 | 0.00 | 85 | 1010.3 |
| 20260506103431 | 32 | 324 | 0.0 | 0.0 | 0.00 | 0.00 | 0.00 | 85 | 1010.2 |
| 20260506102832 | 32 | 324 | 0.0 | 0.0 | 0.00 | 0.00 | 0.00 | 86 | 1010.3 |
| 20260506102352 | 32 | 324 | 0.0 | 0.0 | 0.00 | 0.00 | 0.00 | 85 | 1010.2 |
| 20260506101853 | 32 | 324 | 0.0 | 0.0 | 0.00 | 0.00 | 0.00 | 85 | 1010.3 |
| 20260506101350 | 32 | 324 | 0.0 | 0.0 | 0.00 | 0.00 | 0.00 | 84 | 1010.3 |
| 20260506100913 | 32 | 324 | 0.0 | 0.0 | 0.00 | 0.00 | 0.00 | 84 | 1010.3 |
| 20260506100334 | 32 | 324 | 0.0 | 0.0 | 0.00 | 0.00 | 0.00 | 84 | 1010.3 |
| 20260506095848 | 32 | 324 | 0.0 | 0.0 | 0.00 | 0.00 | 0.00 | 83 | 1010.4 |
| 20260506095346 | 32 | 324 | 0.0 | 0.0 | 0.00 | 0.00 | 0.00 | 84 | 1010.5 |
| 20260506094328 | 32 | 324 | 0.0 | 0.0 | 0.00 | 0.00 | 0.00 | 83 | 1010.4 |
| 20260506093853 | 32 | 324 | 0.0 | 0.0 | 0.00 | 0.00 | 0.00 | 83 | 1010.3 |
| 20260506093407 | 32 | 324 | 0.0 | 1.0 | 0.00 | 0.00 | 0.00 | 83 | 1010.3 |
| 20260506092904 | 32 | 324 | 0.0 | 1.0 | 0.00 | 0.00 | 0.00 | 83 | 1010.4 |
| 20260506092328 | 32 | 324 | 0.0 | 0.0 | 0.00 | 0.00 | 0.00 | 82 | 1010.3 |
| 20260506091852 | 31 | 324 | 0.0 | 0.0 | 0.00 | 0.00 | 0.00 | 82 | 1010.3 |
| 20260506091404 | 31 | 324 | 0.0 | 0.0 | 0.00 | 0.00 | 0.00 | 83 | 1010.3 |
| 20260506090922 | 31 | 324 | 0.0 | 0.0 | 0.00 | 0.00 | 0.00 | 84 | 1010.4 |
| 20260506090345 | 31 | 324 | 0.0 | 0.0 | 0.00 | 0.00 | 0.00 | 83 | 1010.3 |
| 20260506085415 | 31 | 324 | 0.0 | 0.0 | 0.00 | 0.00 | 0.00 | 83 | 1010.1 |
| 20260506084838 | 31 | 324 | 0.0 | 0.0 | 0.00 | 0.00 | 0.00 | 81 | 1010.1 |
| 20260506084401 | 31 | 324 | 0.0 | 0.0 | 0.00 | 0.00 | 0.00 | 83 | 1009.9 |
| 20260506083901 | 31 | 324 | 0.0 | 0.0 | 0.00 | 0.00 | 0.00 | 83 | 1009.9 |
| 20260506083408 | 31 | 324 | 0.0 | 0.0 | 0.00 | 0.00 | 0.00 | 84 | 1009.9 |
| 20260506082843 | 31 | 324 | 0.0 | 0.0 | 0.00 | 0.00 | 0.00 | 84 | 1009.8 |
| 20260506082403 | 31 | 324 | 0.0 | 0.0 | 0.00 | 0.00 | 0.00 | 84 | 1009.9 |
| 20260506081936 | 31 | 324 | 0.0 | 0.0 | 0.00 | 0.00 | 0.00 | 83 | 1009.9 |
| 20260506081324 | 31 | 324 | 0.0 | 0.0 | 0.00 | 0.00 | 0.00 | 83 | 1009.9 |
| 20260506080846 | 31 | 324 | 0.0 | 0.0 | 0.00 | 0.00 | 0.00 | 84 | 1009.9 |
| 20260506073336 | 30 | 324 | 0.0 | 0.0 | 0.00 | 0.00 | 0.00 | 84 | 1009.9 |
| 20260506072859 | 29 | 324 | 0.0 | 0.0 | 0.00 | 0.00 | 0.00 | 85 | 1009.9 |
| 20260506072343 | 29 | 324 | 0.0 | 0.0 | 0.00 | 0.00 | 0.00 | 85 | 1010.0 |
| 20260506071916 | 29 | 324 | 0.0 | 0.0 | 0.00 | 0.00 | 0.00 | 85 | 1009.9 |
| 20260506071439 | 29 | 324 | 0.0 | 0.0 | 0.00 | 0.00 | 0.00 | 84 | 1009.9 |
| 20260506070838 | 29 | 324 | 0.0 | 0.0 | 0.00 | 0.00 | 0.00 | 84 | 1009.8 |